TimeEDT,TemperatureF,Dew PointF,Humidity,Sea Level PressureIn,VisibilityMPH,Wind Direction,Wind SpeedMPH,Gust SpeedMPH,PrecipitationIn,Events,Conditions,WindDirDegrees,DateUTC
12:51 AM,46.9,45.0,93,30.39,10.0,Calm,Calm,-,N/A,,Overcast,0,2013-10-14 04:51:00
1:51 AM,45.0,43.0,93,30.39,10.0,Calm,Calm,-,N/A,,Scattered Clouds,0,2013-10-14 05:51:00
2:51 AM,44.1,42.1,93,30.37,10.0,Calm,Calm,-,N/A,,Partly Cloudy,0,2013-10-14 06:51:00
3:51 AM,42.1,41.0,96,30.37,9.0,Calm,Calm,-,N/A,,Clear,0,2013-10-14 07:51:00
4:51 AM,41.0,39.9,96,30.37,8.0,Calm,Calm,-,N/A,,Clear,0,2013-10-14 08:51:00
5:51 AM,41.0,39.9,96,30.37,10.0,Calm,Calm,-,N/A,,Clear,0,2013-10-14 09:51:00
6:51 AM,39.0,37.9,96,30.37,10.0,Calm,Calm,-,N/A,,Partly Cloudy,0,2013-10-14 10:51:00
7:11 AM,37.4,37.4,100,30.37,3.0,Calm,Calm,-,N/A,,Scattered Clouds,0,2013-10-14 11:11:00
7:39 AM,39.2,37.4,93,30.37,2.0,Calm,Calm,-,N/A,,Scattered Clouds,0,2013-10-14 11:39:00
7:48 AM,39.2,39.2,100,30.37,1.5,Calm,Calm,-,N/A,,Scattered Clouds,0,2013-10-14 11:48:00
7:51 AM,41.0,39.9,96,30.38,1.0,Calm,Calm,-,N/A,,Scattered Clouds,0,2013-10-14 11:51:00
8:23 AM,44.6,42.8,93,30.38,3.0,Calm,Calm,-,N/A,,Scattered Clouds,0,2013-10-14 12:23:00
8:51 AM,46.0,44.1,93,30.38,7.0,North,3.5,-,N/A,,Scattered Clouds,350,2013-10-14 12:51:00
9:51 AM,51.1,45.0,80,30.38,10.0,Calm,Calm,-,N/A,,Partly Cloudy,0,2013-10-14 13:51:00
10:51 AM,55.9,45.0,67,30.35,10.0,Calm,Calm,-,N/A,,Scattered Clouds,0,2013-10-14 14:51:00
11:51 AM,57.0,45.0,64,30.33,10.0,Calm,Calm,-,N/A,,Mostly Cloudy,0,2013-10-14 15:51:00
12:51 PM,61.0,46.0,58,30.30,10.0,Calm,Calm,-,N/A,,Mostly Cloudy,0,2013-10-14 16:51:00
1:51 PM,63.0,46.0,54,30.27,10.0,SSE,5.8,-,N/A,,Mostly Cloudy,150,2013-10-14 17:51:00
2:51 PM,63.0,46.0,54,30.26,10.0,SE,5.8,-,N/A,,Mostly Cloudy,140,2013-10-14 18:51:00
3:51 PM,63.0,45.0,52,30.25,10.0,South,6.9,-,N/A,,Mostly Cloudy,170,2013-10-14 19:51:00
4:51 PM,63.0,45.0,52,30.25,10.0,South,6.9,-,N/A,,Mostly Cloudy,180,2013-10-14 20:51:00
5:51 PM,62.1,42.1,48,30.25,10.0,South,5.8,-,N/A,,Mostly Cloudy,180,2013-10-14 21:51:00
6:51 PM,57.9,44.1,60,30.27,10.0,South,4.6,-,N/A,,Mostly Cloudy,180,2013-10-14 22:51:00
7:51 PM,57.0,45.0,64,30.27,10.0,South,5.8,-,N/A,,Scattered Clouds,180,2013-10-14 23:51:00
8:51 PM,54.0,46.9,77,30.27,10.0,South,6.9,-,N/A,,Partly Cloudy,170,2013-10-15 00:51:00
9:51 PM,52.0,48.0,86,30.27,10.0,South,5.8,-,N/A,,Partly Cloudy,170,2013-10-15 01:51:00
10:51 PM,52.0,48.0,86,30.26,10.0,South,6.9,-,N/A,,Scattered Clouds,180,2013-10-15 02:51:00
11:51 PM,52.0,48.0,86,30.27,10.0,Calm,Calm,-,N/A,,Mostly Cloudy,0,2013-10-15 03:51:00